Weather History for Las Vegas, NM

Change the Weather History Date:

Wednesday, February 13, 2013

  Actual Average Record
Temperature  
Mean Temperature 31 °F -  
Max Temperature 50 °F 51 °F 66 °F (1954)
Min Temperature 12 °F 24 °F -2 °F (1965)
Degree Days  
Heating Degree Days 34    
Moisture  
Dew Point 6 °F    
Average Humidity 38    
Maximum Humidity 61    
Minimum Humidity 18    
Precipitation  
Precipitation 0.00 in - - ()
Sea Level Pressure  
Sea Level Pressure 29.97 in    
Wind  
Wind Speed 5 mph (ENE)    
Max Wind Speed 13 mph    
Max Gust Speed -    
Visibility 10 miles    
Events      
Averages and records for this station are not official NWS values.
T = Trace of Precipitation, MM = Missing Value Source: NWS Daily Summary

Daily Weather History Graph

Daily Weather History Graph

Search for Another Location

Airport:

Trip Planner

Search our weather history database for the weather conditions in past years. The results will help you decide how hot, cold, wet, or windy it might be!

Date:

Astronomy

Feb. 13, 2013 Rise Set
Actual Time 6:49 AM MST 5:40 PM MST
Civil Twilight 6:23 AM MST 6:07 PM MST
Nautical Twilight 5:53 AM MST 6:36 PM MST
Astronomical Twilight 5:23 AM MST 7:06 PM MST
Moon 8:29 AM MST (2/13) 9:35 PM MST (2/13)
Length of Visible Light 11h 44m
Length of Day
10h 51m
Waxing Crescent, 14% of the Moon is Illuminated
Feb 13
Waxing Crescent
Feb 17
First Quarter
Feb 25
Full
Mar 4
Last Quarter
Mar 11
New

Hourly Weather History & Observations

Time (MST) Temp. Windchill Dew Point Humidity Pressure Visibility Wind Dir Wind Speed Gust Speed Precip Events Conditions
12:53 AM 21.9 °F 15.7 °F 1.0 °F 40% 30.03 in 10.0 mi West 4.6 mph - N/A   Clear
1:53 AM 15.1 °F 7.7 °F 1.0 °F 54% 30.06 in 10.0 mi NE 4.6 mph - N/A   Clear
2:53 AM 14.0 °F - 1.0 °F 56% 30.04 in 10.0 mi Calm Calm - N/A   Clear
3:53 AM 19.0 °F 12.3 °F 1.0 °F 46% 30.00 in 10.0 mi North 4.6 mph - N/A   Clear
4:53 AM 12.0 °F 4.1 °F 1.0 °F 61% 30.04 in 10.0 mi NNE 4.6 mph - N/A   Clear
5:53 AM 14.0 °F 2.0 °F 1.0 °F 56% 30.06 in 10.0 mi NE 9.2 mph - N/A   Clear
6:53 AM 16.0 °F 7.4 °F 1.0 °F 52% 30.06 in 10.0 mi NNE 5.8 mph - N/A   Clear
7:53 AM 23.0 °F - 6.1 °F 48% 30.03 in 10.0 mi Calm Calm - N/A   Clear
8:53 AM 30.9 °F 26.2 °F 8.1 °F 38% 30.01 in 10.0 mi NNW 4.6 mph - N/A   Clear
9:53 AM 37.0 °F 33.3 °F 8.1 °F 30% 29.98 in 10.0 mi WNW 4.6 mph - N/A   Clear
10:53 AM 41.0 °F 36.4 °F 1.9 °F 20% 29.97 in 10.0 mi SSW 6.9 mph - N/A   Clear
11:53 AM 43.0 °F 38.8 °F 6.1 °F 22% 29.93 in 10.0 mi South 6.9 mph - N/A   Clear
12:53 PM 46.0 °F 43.1 °F 6.1 °F 20% 29.89 in 10.0 mi SSE 5.8 mph - N/A   Clear
1:53 PM 46.9 °F - 5.0 °F 18% 29.89 in 10.0 mi Calm Calm - N/A   Clear
2:53 PM 48.9 °F - 7.0 °F 18% 29.86 in 10.0 mi SSE 12.7 mph - N/A   Clear
3:53 PM 50.0 °F - 9.0 °F 19% 29.84 in 10.0 mi South 12.7 mph - N/A   Clear
4:53 PM 48.0 °F - 9.0 °F 21% 29.88 in 10.0 mi SSE 8.1 mph - N/A   Clear
5:53 PM 39.0 °F 33.4 °F 10.0 °F 30% 29.93 in 10.0 mi SSE 8.1 mph - N/A   Clear
6:53 PM 36.0 °F 27.5 °F 6.1 °F 29% 29.98 in 10.0 mi NE 12.7 mph - N/A   Clear
7:53 PM 32.0 °F 24.2 °F 7.0 °F 35% 29.98 in 10.0 mi NE 9.2 mph - N/A   Clear
8:53 PM 26.1 °F 16.8 °F 10.9 °F 53% 29.99 in 10.0 mi East 9.2 mph - N/A   Clear
9:53 PM 28.0 °F 21.7 °F 12.0 °F 51% 29.96 in 10.0 mi ENE 5.8 mph - N/A   Clear
10:53 PM 28.0 °F - 10.9 °F 49% 29.96 in 10.0 mi Calm Calm - N/A   Clear
11:53 PM 30.0 °F 26.5 °F 10.9 °F 45% 29.95 in 10.0 mi WNW 3.5 mph - N/A   Clear